Location: Betpouey
(42.8833°N, 0.0333°E)
Time: 08:29:30
(UTC+00:00)

Cosmos 2239 Rocket - Pass Details

Date: 01 December 2020
Orbit: 955 x 991 km, 82.9° (Epoch: 17 January)

Event Time Altitude Azimuth Distance (km) Brightness Sun altitude
Rises 18:36:36 0° 351° (N) 3,648 7.5 -23.2°
Reaches altitude 10° 18:39:06 10° 351° (N) 2,701 6.8 -23.7°
Maximum altitude 18:45:17 86° 266° (W) 972 4.4 -24.8°
Drops below altitude 10° 18:51:30 10° 176° (S) 2,704 6.8 -25.9°
Sets 18:54:00 0° 176° (S) 3,653 7.5 -26.4°
